Weather History for Martinsburg, WV

Change the Weather History Date:

Wednesday, October 5, 2011

  Actual Average Record
Temperature  
Mean Temperature 63 °F 58 °F  
Max Temperature 75 °F 69 °F 93 °F (1951)
Min Temperature 50 °F 46 °F 30 °F (1935)
Degree Days  
Heating Degree Days 2 8  
Month to date heating degree days 62 37  
Since 1 July heating degree days 105 128  
Cooling Degree Days 0 1  
Month to date cooling degree days 0 5  
Year to date cooling degree days 1284 890  
Growing Degree Days 12 (Base 50)    
Moisture  
Dew Point 49 °F    
Average Humidity 65    
Maximum Humidity 89    
Minimum Humidity 41    
Precipitation  
Precipitation 0.00 in 0.10 in 2.06 in (1948)
Month to date precipitation 1.06 0.49  
Year to date precipitation 37.41 30.30  
Sea Level Pressure  
Sea Level Pressure 30.22 in    
Wind  
Wind Speed 5 mph (WNW)    
Max Wind Speed 15 mph    
Max Gust Speed 23 mph    
Visibility 10 miles    
Events      
T = Trace of Precipitation, MM = Missing Value Source: NWS Daily Summary

Daily Weather History Graph

Daily Weather History Graph

Search for Another Location

Airport:

Trip Planner

Search our weather history database for the weather conditions in past years. The results will help you decide how hot, cold, wet, or windy it might be!

Date:

Astronomy

Oct. 05, 2011 Rise Set
Actual Time 7:11 AM EDT 6:48 PM EDT
Civil Twilight 6:44 AM EDT 7:15 PM EDT
Nautical Twilight 6:13 AM EDT 7:46 PM EDT
Astronomical Twilight 5:42 AM EDT 8:17 PM EDT
Moon 3:26 PM EDT (10/5) 12:57 AM EDT (10/5)
Length of Visible Light 12h 30m
Length of Day
11h 36m
Waxing Gibbous, 66% of the Moon is Illuminated
Oct 5
Waxing Gibbous
Oct 11
Full
Oct 19
Last Quarter
Oct 26
New
Nov 2
First Quarter

Hourly Weather History & Observations

Time (EDT) Temp. Dew Point Humidity Pressure Visibility Wind Dir Wind Speed Gust Speed Precip Events Conditions
12:53 AM 53.1 °F 50.0 °F 89% 30.19 in 10.0 mi SSW 3.5 mph - N/A   Clear
1:53 AM 53.1 °F 48.9 °F 86% 30.19 in 10.0 mi WSW 5.8 mph - N/A   Clear
2:53 AM 54.0 °F 48.9 °F 83% 30.19 in 10.0 mi West 8.1 mph - N/A   Clear
3:53 AM 57.9 °F 48.0 °F 70% 30.19 in 10.0 mi West 5.8 mph - N/A   Clear
4:53 AM 52.0 °F 46.9 °F 83% 30.20 in 10.0 mi West 5.8 mph - N/A   Clear
5:53 AM 52.0 °F 46.9 °F 83% 30.21 in 10.0 mi SW 3.5 mph - N/A   Clear
6:53 AM 50.0 °F 44.6 °F 82% 30.23 in 10.0 mi Calm Calm - N/A   Clear
7:53 AM 52.0 °F 46.9 °F 83% 30.24 in 10.0 mi Calm Calm - N/A   Clear
8:53 AM 57.9 °F 50.0 °F 75% 30.25 in 10.0 mi Calm Calm - N/A   Clear
9:53 AM 63.0 °F 50.0 °F 63% 30.25 in 10.0 mi West 8.1 mph - N/A   Clear
10:53 AM 66.0 °F 50.0 °F 56% 30.25 in 10.0 mi WNW 8.1 mph - N/A   Clear
11:53 AM 68.0 °F 48.9 °F 50% 30.24 in 10.0 mi NNW 8.1 mph 19.6 mph N/A   Clear
12:53 PM 70.0 °F 50.0 °F 49% 30.24 in 10.0 mi NW 11.5 mph 18.4 mph N/A   Clear
1:53 PM 72.0 °F 51.1 °F 48% 30.20 in 10.0 mi NNW 8.1 mph - N/A   Clear
2:53 PM 73.9 °F 50.0 °F 43% 30.18 in 10.0 mi NW 11.5 mph 17.3 mph N/A   Clear
3:53 PM 73.9 °F 48.9 °F 41% 30.18 in 10.0 mi NW 9.2 mph 19.6 mph N/A   Clear
4:53 PM 73.9 °F 50.0 °F 43% 30.17 in 10.0 mi North 5.8 mph - N/A   Clear
5:53 PM 73.4 °F 50.0 °F 44% 30.19 in 10.0 mi NNW 8.1 mph - N/A   Clear
6:53 PM 69.8 °F 51.8 °F 53% 30.20 in 10.0 mi NW 3.5 mph - N/A   Clear
7:53 PM 64.9 °F 50.0 °F 58% 30.21 in 10.0 mi Calm Calm - N/A   Clear
8:53 PM 59.0 °F 52.0 °F 78% 30.23 in 10.0 mi Calm Calm - N/A   Clear
9:53 PM 64.0 °F 51.1 °F 63% 30.24 in 10.0 mi NW 4.6 mph - N/A   Clear
10:53 PM 63.0 °F 51.1 °F 65% 30.25 in 10.0 mi NW 4.6 mph - N/A   Scattered Clouds
11:53 PM 55.0 °F 50.0 °F 83% 30.29 in 10.0 mi NE 5.8 mph - N/A   Clear